OM3WYM-13 Weather Reports


time (UTC)temp
C
wind
direction
speed
KPH
gust
KPH
rain 1hr
cm
rain 24hr
cm
rain mn
cm
humidity
%
barometer
mb
20260507100008 20 0.0 0.0 0.00 0.00 0.00 51 1012.2
20260507095008 20 0.0 0.0 0.00 0.00 0.00 51 1012.2
20260507094008 20 0.0 0.0 0.00 0.00 0.00 51 1012.2
20260507093008 20 0.0 0.0 0.00 0.00 0.00 51 1012.2
20260507092008 20 0.0 0.0 0.00 0.00 0.00 51 1012.1
20260507091008 20 0.0 0.0 0.00 0.00 0.00 50 1011.9
20260507090008 20 0.0 0.0 0.00 0.00 0.00 50 1011.8
20260507085008 20 0.0 0.0 0.00 0.00 0.00 51 1011.8
20260507084008 20 0.0 0.0 0.00 0.00 0.00 51 1011.6
20260507083008 20 0.0 0.0 0.00 0.00 0.00 51 1011.5
20260507082008 20 0.0 0.0 0.00 0.00 0.00 51 1011.3
20260507081008 20 0.0 0.0 0.00 0.00 0.00 52 1011.5
20260507080008 20 0.0 0.0 0.00 0.00 0.00 52 1011.3
20260507075008 19 0.0 0.0 0.00 0.00 0.00 54 1011.3
20260507074008 19 0.0 0.0 0.00 0.00 0.00 55 1011.3
20260507073008 19 0.0 0.0 0.00 0.00 0.00 55 1011.2
20260507072008 18 0.0 0.0 0.00 0.00 0.00 57 1011.3
20260507071008 18 0.0 0.0 0.00 0.00 0.00 58 1011.3
20260507070011 18 0.0 0.0 0.00 0.00 0.00 56 1011.1
20260507065008 18 0.0 0.0 0.00 0.00 0.00 56 1011.0
20260507064008 18 0.0 0.0 0.00 0.00 0.00 57 1010.9
20260507063008 17 0.0 0.0 0.00 0.00 0.00 59 1011.2
20260507062008 17 0.0 0.0 0.00 0.00 0.00 61 1011.3
20260507061008 17 0.0 0.0 0.00 0.00 0.00 61 1011.2
20260507060008 16 0.0 0.0 0.00 0.00 0.00 61 1011.1
20260507055008 16 0.0 0.0 0.00 0.00 0.00 64 1011.1
20260507054008 16 0.0 0.0 0.00 0.00 0.00 66 1011.3
20260507053008 15 0.0 0.0 0.00 0.00 0.00 71 1011.3
20260507052008 13 0.0 0.0 0.00 0.00 0.00 75 1011.5
20260507051008 13 0.0 0.0 0.00 0.00 0.00 78 1011.6
20260507050008 12 0.0 0.0 0.00 0.00 0.00 80 1011.4
20260507045008 12 0.0 0.0 0.00 0.00 0.00 81 1011.4
20260507044008 12 0.0 0.0 0.00 0.00 0.00 81 1011.6
20260507043008 12 0.0 0.0 0.00 0.00 0.00 83 1011.7
20260507042008 11 0.0 0.0 0.00 0.00 0.00 84 1011.8
20260507041008 11 0.0 0.0 0.00 0.00 0.00 85 1011.8
20260507040008 11 0.0 0.0 0.00 0.00 0.00 86 1011.8
20260507035008 11 0.0 0.0 0.00 0.00 0.00 87 1011.8
20260507034008 11 0.0 0.0 0.00 0.00 0.00 87 1011.7
20260507033008 11 0.0 0.0 0.00 0.00 0.00 88 1011.6
20260507032008 11 0.0 0.0 0.00 0.00 0.00 87 1011.7
20260507031008 11 0.0 0.0 0.00 0.00 0.00 86 1011.8
20260507030008 11 0.0 0.0 0.00 0.00 0.00 84 1011.6
20260507025008 11 0.0 0.0 0.00 0.00 0.00 86 1011.5
20260507024008 11 0.0 0.0 0.00 0.00 0.00 85 1011.3
20260507023008 11 0.0 0.0 0.00 0.00 0.00 86 1011.1
20260507022008 11 0.0 0.0 0.00 0.00 0.00 86 1010.9
20260507021008 11 0.0 0.0 0.00 0.00 0.00 84 1010.8
20260507020009 11 0.0 0.0 0.00 0.00 0.00 84 1010.8
20260507015008 11 0.0 0.0 0.00 0.00 0.00 84 1010.8
20260507014008 11 0.0 0.0 0.00 0.00 0.00 83 1010.9
20260507013008 11 0.0 0.0 0.00 0.00 0.00 81 1010.7
20260507012008 11 0.0 0.0 0.00 0.00 0.00 80 1010.6
20260507011008 11 0.0 0.0 0.00 0.00 0.00 81 1010.6
20260507010008 11 0.0 0.0 0.00 0.00 0.00 80 1010.5
20260507005008 11 0.0 0.0 0.00 0.00 0.00 80 1010.4
20260507004008 11 0.0 0.0 0.00 0.00 0.00 80 1010.4
20260507003008 12 0.0 0.0 0.00 0.00 0.00 77 1010.3
20260507002008 12 0.0 0.0 0.00 0.00 0.00 76 1010.3
20260507001008 12 0.0 0.0 0.00 0.00 0.00 75 1010.3
20260507000008 12 0.0 0.0 0.00 0.00 0.00 76 1010.3
20260506235008 12 0.0 0.0 0.00 0.00 0.00 75 1010.3
20260506234008 12 0.0 0.0 0.00 0.00 0.00 74 1010.3
20260506233008 12 0.0 0.0 0.00 0.00 0.00 75 1010.6
20260506232008 12 0.0 0.0 0.00 0.00 0.00 74 1010.4
20260506231008 12 0.0 0.0 0.00 0.00 0.00 73 1010.3
20260506230008 12 0.0 0.0 0.00 0.00 0.00 73 1010.4
20260506225008 13 0.0 0.0 0.00 0.00 0.00 72 1010.3
20260506224008 13 0.0 0.0 0.00 0.00 0.00 72 1010.4
20260506223008 13 0.0 0.0 0.00 0.00 0.00 71 1010.4
20260506222008 13 0.0 0.0 0.00 0.00 0.00 71 1010.3
20260506221008 13 0.0 0.0 0.00 0.00 0.00 71 1010.4
20260506220008 13 0.0 0.0 0.00 0.00 0.00 70 1010.2
20260506215008 13 0.0 0.0 0.00 0.00 0.00 70 1010.2
20260506214008 13 0.0 0.0 0.00 0.00 0.00 70 1010.3
20260506213008 13 0.0 0.0 0.00 0.00 0.00 70 1010.3
20260506212008 13 0.0 0.0 0.00 0.00 0.00 69 1010.4
20260506211008 13 0.0 0.0 0.00 0.00 0.00 68 1010.4
20260506210008 13 0.0 0.0 0.00 0.00 0.00 67 1010.3
20260506205008 14 0.0 0.0 0.00 0.00 0.00 65 1010.2
20260506204008 15 0.0 0.0 0.00 0.00 0.00 64 1010.2
20260506203008 15 0.0 0.0 0.00 0.00 0.00 62 1010.1
20260506202008 15 0.0 0.0 0.00 0.00 0.00 60 1010.0
20260506201008 16 0.0 0.0 0.00 0.00 0.00 58 1010.0
20260506200008 16 0.0 0.0 0.00 0.00 0.00 56 1009.9
20260506195008 17 0.0 0.0 0.00 0.00 0.00 54 1009.7
20260506194008 17 0.0 0.0 0.00 0.00 0.00 51 1009.6
20260506193008 18 0.0 0.0 0.00 0.00 0.00 49 1009.5
20260506192008 19 0.0 0.0 0.00 0.00 0.00 46 1009.5
20260506191008 19 0.0 0.0 0.00 0.00 0.00 45 1009.2
20260506190008 18 0.0 0.0 0.00 0.00 0.00 47 1009.2
20260506185008 19 0.0 0.0 0.00 0.00 0.00 45 1009.2
20260506184008 20 0.0 0.0 0.00 0.00 0.00 45 1009.2
20260506183008 20 0.0 0.0 0.00 0.00 0.00 45 1009.0
20260506182008 20 0.0 0.0 0.00 0.00 0.00 46 1009.0
20260506181008 20 0.0 0.0 0.00 0.00 0.00 45 1008.9
20260506180008 20 0.0 0.0 0.00 0.00 0.00 43 1008.7
20260506175008 21 0.0 0.0 0.00 0.00 0.00 42 1008.6
20260506174008 21 0.0 0.0 0.00 0.00 0.00 42 1008.6
20260506173008 21 0.0 0.0 0.00 0.00 0.00 41 1008.6
20260506172008 22 0.0 0.0 0.00 0.00 0.00 40 1008.6
20260506171008 22 0.0 0.0 0.00 0.00 0.00 38 1008.6
20260506170008 22 0.0 0.0 0.00 0.00 0.00 38 1008.5
20260506165008 23 0.0 0.0 0.00 0.00 0.00 36 1008.5
20260506164008 23 0.0 0.0 0.00 0.00 0.00 35 1008.5
20260506163008 23 0.0 0.0 0.00 0.00 0.00 34 1008.6
20260506162008 24 0.0 0.0 0.00 0.00 0.00 34 1008.5
20260506161008 25 0.0 0.0 0.00 0.00 0.00 33 1008.5
20260506160008 24 0.0 0.0 0.00 0.00 0.00 32 1008.6
20260506155008 25 0.0 0.0 0.00 0.00 0.00 32 1008.6
20260506154008 25 0.0 0.0 0.00 0.00 0.00 31 1008.5
20260506153008 25 0.0 0.0 0.00 0.00 0.00 32 1008.4
20260506152008 25 0.0 0.0 0.00 0.00 0.00 31 1008.4
20260506151008 25 0.0 0.0 0.00 0.00 0.00 31 1008.5
20260506150008 26 0.0 0.0 0.00 0.00 0.00 30 1008.5
20260506145008 27 0.0 0.0 0.00 0.00 0.00 27 1008.3
20260506144008 27 0.0 0.0 0.00 0.00 0.00 27 1008.5
20260506143008 26 0.0 0.0 0.00 0.00 0.00 28 1008.6
20260506142008 26 0.0 0.0 0.00 0.00 0.00 28 1008.7
20260506141008 26 0.0 0.0 0.00 0.00 0.00 28 1008.7
20260506140008 26 0.0 0.0 0.00 0.00 0.00 29 1008.6
20260506135008 26 0.0 0.0 0.00 0.00 0.00 29 1008.7
20260506134008 26 0.0 0.0 0.00 0.00 0.00 28 1008.7
20260506133008 26 0.0 0.0 0.00 0.00 0.00 29 1008.7
20260506132008 26 0.0 0.0 0.00 0.00 0.00 27 1008.7
20260506131008 26 0.0 0.0 0.00 0.00 0.00 28 1008.7
20260506130008 26 0.0 0.0 0.00 0.00 0.00 30 1008.9
20260506125008 25 0.0 0.0 0.00 0.00 0.00 32 1008.9
20260506124008 26 0.0 0.0 0.00 0.00 0.00 31 1009.0
20260506123008 26 0.0 0.0 0.00 0.00 0.00 32 1009.1
20260506122009 25 0.0 0.0 0.00 0.00 0.00 34 1009.3
20260506121008 24 0.0 0.0 0.00 0.00 0.00 35 1009.4
20260506120008 24 0.0 0.0 0.00 0.00 0.00 36 1009.8
20260506115008 23 0.0 0.0 0.00 0.00 0.00 36 1009.8
20260506114015 23 0.0 0.0 0.00 0.00 0.00 37 1009.8
20260506113008 23 0.0 0.0 0.00 0.00 0.00 38 1009.9
20260506112008 24 0.0 0.0 0.00 0.00 0.00 37 1010.0
20260506111008 23 0.0 0.0 0.00 0.00 0.00 38 1009.9
20260506110008 23 0.0 0.0 0.00 0.00 0.00 37 1010.1
20260506105008 23 0.0 0.0 0.00 0.00 0.00 39 1010.1
20260506104008 22 0.0 0.0 0.00 0.00 0.00 41 1010.3
20260506103008 22 0.0 0.0 0.00 0.00 0.00 41 1010.3
20260506102008 21 0.0 0.0 0.00 0.00 0.00 43 1010.5
20260506101008 21 0.0 0.0 0.00 0.00 0.00 43 1010.6